User: anonymous   Login
Location: Bridgewater Hill Observatory
(43.5992°N, 72.6989°W)
Time: 22:43:02
(UTC-04:00)
Language:

Cosmos 1452 Rocket - Orbit

View from above orbital plane
View from above orbital plane
View from above satellite
View from above satellite

Ground track
Ground track

The orbit data is extracted from the following two-line orbital elements,

1 13992U 83031B   16176.85408821 +.00000058 +00000-0 +28858-4 0  9994
2 13992 074.0541 302.4993 0005053 001.7357 114.9420 14.36040450737222
Epoch (UTC): 24 June 2016 20:29:53
Eccentricity: 0.0005053
inclination: 74.0541°
perigee height: 768 km
apogee height: 775 km
right ascension of ascending node: 302.4993°
argument of perigee: 1.7357°
revolutions per day: 14.36040450
mean anomaly at epoch: 114.9420°
orbit number at epoch: 73722

The dashed part of the orbit path shows where the satellite is in the earth's shadow,  

DLR